1500508800.83,36420,19.94,74330.3,5.21,-19.31,-20.15,0,*74
1500508802.1,36421,19.94,74328.5,5.21,-19.31,-20.15,0,*75
1500508803.38,36422,19.94,74330.0,5.21,-19.41,-20.19,0,*7D
1500508804.62,36423,19.94,74330.8,5.23,-19.31,-20.15,0,*75
1500508805.85,36424,19.94,74330.0,5.23,-19.23,-19.99,0,*7F
1500508807.11,36425,19.94,74330.8,5.21,-19.27,-20.05,0,*77
1500508808.36,36426,19.94,74326.8,5.21,-19.57,-20.29,0,*7D
1500508809.58,36427,19.94,74328.5,5.21,-19.47,-20.29,0,*7D
1500508810.85,36428,19.94,74330.0,5.21,-19.41,-20.19,0,*77
1500508812.1,36429,19.94,74330.0,5.21,-19.31,-19.99,0,*73
1500508813.38,36430,19.94,74330.3,5.21,-19.57,-20.19,0,*79
1500508814.65,36431,19.94,74330.8,5.21,-19.23,-20.15,0,*77
1500508815.91,36432,19.94,74330.5,5.21,-19.41,-20.15,0,*70
1500508817.19,36433,19.94,74330.3,5.21,-19.57,-20.19,0,*7A
1500508818.42,36434,19.94,74330.3,5.23,-19.47,-20.19,0,*7E
1500508819.67,36435,19.94,74328.5,5.23,-19.61,-20.35,0,*75
1500508820.92,36436,19.94,74328.8,5.23,-19.61,-20.35,0,*76
1500508822.15,36437,19.94,74330.5,5.23,-19.75,-20.49,0,*79
1500508823.37,36438,19.94,74332.8,5.23,-19.75,-20.35,0,*7D
1500508824.59,36439,19.94,74330.3,5.23,-19.61,-20.29,0,*74
1500508825.87,36440,19.94,74332.3,5.21,-19.57,-20.19,0,*7E
1500508827.1,36441,19.94,74332.5,5.23,-19.71,-20.35,0,*77
1500508828.33,36442,19.94,74328.5,5.23,-19.57,-20.29,0,*7D
1500508829.6,36443,19.94,74328.5,5.21,-19.61,-20.35,0,*76
1500508830.86,36444,19.94,74332.8,5.21,-19.61,-20.39,0,*7D
1500508832.11,36445,19.94,74330.8,5.21,-19.57,-20.29,0,*78
1500508833.38,36446,19.94,74332.0,5.21,-19.61,-20.35,0,*73
1500508834.66,36447,19.94,74328.3,5.21,-19.41,-20.19,0,*7E
1500508835.88,36448,19.94,74330.3,5.23,-19.57,-20.29,0,*77
1500508837.08,36449,19.94,74330.3,5.23,-19.47,-20.29,0,*77
1500508838.34,36450,19.94,74328.0,5.23,-19.57,-20.35,0,*73
1500508839.56,36451,19.94,74330.8,5.23,-19.57,-20.29,0,*7F
1500508840.79,36452,19.94,74330.5,5.23,-19.61,-20.29,0,*79
1500508842.02,36453,19.94,74328.8,5.23,-19.71,-20.35,0,*74
1500508843.24,36454,19.94,74330.8,5.23,-19.75,-20.49,0,*7C
1500508844.45,36455,19.94,74332.5,5.23,-19.71,-20.39,0,*7E
1500508845.69,36456,19.94,74332.5,5.23,-19.61,-20.39,0,*7C
1500508846.91,36457,19.94,74330.8,5.23,-19.47,-20.19,0,*7B
1500508848.15,36458,19.94,74328.8,5.19,-19.65,-20.39,0,*7F
1500508849.4,36459,19.94,74326.5,5.21,-19.71,-20.49,0,*77
1500508850.63,36460,19.94,74330.3,5.21,-19.75,-20.39,0,*7E
1500508851.89,36461,19.94,74332.0,5.21,-19.61,-20.39,0,*7A
1500508853.11,36462,19.94,74326.3,5.21,-19.47,-20.29,0,*7C
1500508854.36,36463,19.94,74330.8,5.21,-19.57,-20.29,0,*7C
1500508855.64,36464,19.94,74328.0,5.21,-19.57,-20.35,0,*76
1500508856.91,36465,19.94,74330.3,5.21,-19.57,-20.35,0,*77
1500508858.18,36466,19.94,74330.5,5.21,-19.41,-20.19,0,*7D
1500508859.41,36467,19.94,74326.0,5.21,-19.13,-19.99,0,*79
1500508860.68,36468,19.94,74330.3,5.21,-19.31,-20.15,0,*78
1500508861.93,36469,19.94,74330.0,5.23,-19.41,-20.19,0,*70
1500508863.15,36470,19.94,74326.8,5.23,-19.71,-20.35,0,*75
1500508864.38,36471,19.94,74330.8,5.23,-19.75,-20.53,0,*70
1500508865.61,36472,19.94,74328.3,5.21,-19.71,-20.39,0,*79
1500508866.87,36473,19.94,74328.8,5.21,-19.27,-19.99,0,*7B
1500508868.14,36474,19.94,74326.8,5.21,-19.31,-20.15,0,*75
1500508869.41,36475,19.94,74330.5,5.21,-19.41,-20.19,0,*7F
1500508870.68,36476,19.94,74326.5,5.21,-19.41,-20.19,0,*7C
1500508871.91,36477,19.94,74328.3,5.23,-19.31,-20.05,0,*75
1500508873.14,36478,19.94,74326.8,5.23,-19.31,-20.05,0,*7A
1500508874.39,36479,19.94,74328.3,5.23,-19.57,-20.35,0,*78
1500508875.64,36480,19.94,74330.0,5.23,-19.57,-20.35,0,*7E
1500508876.87,36481,19.94,74326.8,5.23,-19.75,-20.49,0,*74
1500508878.09,36482,19.94,74330.8,5.23,-19.75,-20.53,0,*7C
1500508879.32,36483,19.94,74328.0,5.23,-19.75,-20.53,0,*7D
1500508880.55,36484,19.94,74330.0,5.23,-19.71,-20.49,0,*75
1500508881.78,36485,19.88,74324.0,5.23,-19.75,-20.49,0,*70
1500508882.99,36486,19.94,74326.5,5.23,-19.71,-20.39,0,*70
1500508884.19,36487,19.94,74324.8,5.23,-19.75,-20.63,0,*7A
1500508885.44,36488,19.94,74328.8,5.25,-19.81,-20.49,0,*70
1500508886.68,36489,19.94,74328.8,5.21,-19.75,-20.53,0,*75
1500508887.93,36490,19.94,74330.3,5.21,-19.75,-20.53,0,*7D
1500508889.21,36491,19.94,74326.5,5.21,-19.61,-20.49,0,*72
1500508890.44,36492,19.94,74328.0,5.21,-19.75,-20.39,0,*73
1500508891.71,36493,19.94,74326.0,5.21,-19.41,-20.15,0,*7B
1500508892.98,36494,19.94,74324.3,5.21,-19.57,-20.19,0,*77
1500508894.22,36495,19.88,74324.8,5.23,-19.61,-20.39,0,*73
1500508895.49,36496,19.94,74324.5,5.21,-19.61,-20.35,0,*7E
1500508896.75,36497,19.94,74326.5,5.21,-19.57,-20.29,0,*77
1500508898.0,36498,19.94,74324.8,5.23,-19.57,-20.35,0,*77
1500508899.21,36499,19.94,74326.5,5.23,-19.71,-20.39,0,*7E
1500508900.44,36500,19.88,74326.3,5.23,-19.71,-20.49,0,*78
1500508901.67,36501,19.94,74328.3,5.21,-19.71,-20.39,0,*7C
1500508902.92,36502,19.94,74330.0,5.21,-19.75,-20.49,0,*7C
1500508904.17,36503,19.94,74328.3,5.21,-19.61,-20.29,0,*7E
1500508905.43,36504,19.88,74324.8,5.21,-19.71,-20.53,0,*75
1500508906.68,36505,19.94,74324.8,5.21,-19.75,-20.49,0,*7B
1500508907.95,36506,19.94,74326.5,5.21,-19.85,-20.53,0,*7C
1500508909.19,36507,19.88,74324.5,5.21,-19.85,-20.63,0,*7E
1500508910.45,36508,19.94,74330.0,5.21,-19.75,-20.49,0,*76
1500508911.69,36509,19.94,74330.3,5.21,-19.85,-20.63,0,*70
1500508912.94,36510,19.94,74330.5,5.21,-19.75,-20.49,0,*7F
1500508914.17,36511,19.94,74328.8,5.21,-19.75,-20.63,0,*76
1500508915.41,36512,19.94,74330.0,5.21,-19.75,-20.35,0,*76
1500508916.67,36513,19.94,74326.8,5.21,-19.71,-20.49,0,*78
1500508917.89,36514,19.94,74330.5,5.25,-19.81,-20.59,0,*75
1500508919.11,36515,19.94,74326.8,5.23,-19.75,-20.53,0,*73
1500508920.34,36516,19.94,74326.8,5.23,-19.75,-20.49,0,*7B
1500508921.62,36517,19.94,74328.8,5.21,-19.61,-20.35,0,*76
1500508922.84,36518,19.88,74326.5,5.19,-19.75,-20.53,0,*77
1500508924.09,36519,19.94,74330.0,5.21,-19.75,-20.53,0,*7D
1500508925.34,36520,19.94,74324.3,5.19,-19.81,-20.53,0,*77
1500508926.58,36521,19.94,74326.3,5.21,-19.85,-20.63,0,*7A
1500508927.83,36522,19.94,74330.0,5.21,-19.91,-20.53,0,*7F
1500508929.08,36523,19.94,74328.5,5.21,-19.75,-20.53,0,*74
1500508930.33,36524,19.94,74324.3,5.21,-19.75,-20.49,0,*78
1500508931.56,36525,19.94,74326.0,5.21,-19.75,-20.63,0,*71
1500508932.83,36526,19.94,74326.3,5.21,-19.85,-20.53,0,*7E
1500508934.03,36527,19.88,74326.5,5.23,-19.91,-20.63,0,*7B
1500508935.25,36528,19.94,74328.5,5.21,-19.75,-20.63,0,*7C
1500508936.52,36529,19.94,74326.8,5.21,-19.85,-20.53,0,*71
1500508937.78,36530,19.94,74326.8,5.21,-19.57,-20.39,0,*7A
1500508939.04,36531,19.94,74330.8,5.21,-19.61,-20.39,0,*7E
1500508940.3,36532,19.94,74328.5,5.21,-19.61,-20.39,0,*7D
1500508941.56,36533,19.94,74326.8,5.21,-19.71,-20.49,0,*7A
1500508942.8,36534,19.94,74328.3,5.21,-19.99,-20.79,0,*78
1500508944.04,36535,19.94,74326.5,5.21,-19.85,-20.69,0,*75
1500508945.27,36536,19.94,74328.3,5.21,-19.71,-20.39,0,*78
1500508946.48,36537,19.88,74324.5,5.19,-19.75,-20.43,0,*7B
1500508947.71,36538,19.94,74328.3,5.21,-19.75,-20.39,0,*72
1500508948.95,36539,19.94,74328.3,5.19,-19.81,-20.53,0,*7F
1500508950.15,36540,19.88,74328.8,5.23,-19.99,-20.69,0,*78
1500508951.39,36541,19.94,74328.3,5.21,-19.85,-20.69,0,*76
1500508952.61,36542,19.94,74328.8,5.23,-19.91,-20.79,0,*73
1500508953.85,36543,19.94,74328.5,5.21,-19.85,-20.69,0,*74
1500508955.06,36544,19.94,74328.8,5.19,-19.91,-20.69,0,*7D
1500508956.26,36545,19.94,74330.0,5.19,-19.91,-20.59,0,*7F
1500508957.49,36546,19.94,74330.0,5.21,-19.91,-20.63,0,*7E
1500508958.72,36547,19.94,74328.5,5.19,-19.65,-20.43,0,*7D
1500508959.92,36548,19.88,74326.3,5.19,-19.91,-20.59,0,*72
1500508961.14,36549,19.94,74328.3,5.19,-19.81,-20.69,0,*71
1500508962.37,36550,19.94,74330.0,5.19,-19.65,-20.43,0,*7B
1500508963.61,36551,19.94,74330.0,5.19,-19.61,-20.39,0,*73
1500508964.82,36552,19.88,74326.8,5.19,-19.75,-20.43,0,*78
1500508966.03,36553,19.88,74326.5,5.19,-19.81,-20.69,0,*7A
1500508967.28,36554,19.88,74326.5,5.19,-19.81,-20.53,0,*74
1500508968.53,36555,19.88,74326.3,5.21,-19.85,-20.63,0,*79
1500508969.75,36556,19.94,74328.5,5.21,-19.75,-20.39,0,*7A
1500508970.98,36557,19.88,74324.8,5.21,-19.75,-20.39,0,*7B
1500508972.21,36558,19.94,74328.3,5.21,-19.75,-20.39,0,*74
1500508973.48,36559,19.94,74326.3,5.21,-19.61,-20.35,0,*7C
1500508974.71,36560,19.88,74326.0,5.21,-19.71,-20.39,0,*7B
1500508975.96,36561,19.88,74326.3,5.21,-19.61,-20.29,0,*7A
1500508977.17,36562,19.94,74324.5,5.19,-19.75,-20.39,0,*76
1500508978.41,36563,19.94,74328.5,5.19,-19.65,-20.39,0,*76
1500508979.63,36564,19.94,74328.5,5.19,-19.75,-20.53,0,*7C
1500508980.88,36565,19.94,74328.3,5.21,-19.85,-20.63,0,*7A
1500508982.09,36566,19.94,74326.5,5.19,-19.95,-20.59,0,*7A
1500508983.28,36567,19.94,74330.5,5.19,-20.05,-20.69,0,*7B
1500508984.5,36568,19.88,74326.5,5.17,-20.05,-20.73,0,*71
1500508985.71,36569,19.94,74326.5,5.19,-20.09,-20.89,0,*77
1500508986.94,36570,19.94,74326.5,5.19,-20.19,-20.89,0,*7E
1500508988.16,36571,19.94,74328.3,5.21,-19.91,-20.69,0,*70
1500508989.36,36572,19.94,74326.8,5.19,-19.95,-20.69,0,*7C
1500508990.6,36573,19.94,74326.3,5.17,-20.05,-20.83,0,*74
1500508991.8,36574,19.88,74324.5,5.15,-20.09,-20.93,0,*7C
1500508993.03,36575,19.88,74326.0,5.17,-19.95,-20.73,0,*7E
1500508994.24,36576,19.88,74324.5,5.19,-19.95,-20.73,0,*73
1500508995.44,36577,19.94,74326.8,5.19,-19.91,-20.59,0,*7E
1500508996.69,36578,19.88,74326.8,5.17,-19.81,-20.43,0,*75
1500508997.95,36579,19.94,74328.8,5.17,-19.61,-20.39,0,*77
1500508999.18,36580,19.94,74328.0,5.17,-19.91,-20.59,0,*78
1500509000.38,36581,19.88,74326.5,5.15,-19.99,-20.73,0,*7B
1500509001.61,36582,19.88,74326.5,5.17,-19.95,-20.69,0,*7D
1500509002.81,36583,19.88,74326.0,5.19,-19.91,-20.69,0,*76
1500509004.08,36584,19.94,74326.3,5.17,-19.81,-20.53,0,*77
1500509005.31,36585,19.94,74326.8,5.15,-19.95,-20.49,0,*7A
1500509006.56,36586,19.88,74328.5,5.17,-19.81,-20.59,0,*7F
1500509007.79,36587,19.94,74330.8,5.17,-19.91,-20.59,0,*7F
1500509009.0,36588,19.88,74326.3,5.15,-19.71,-20.43,0,*77
1500509010.23,36589,19.88,74324.5,5.17,-19.75,-20.39,0,*7D
1500509011.5,36590,19.88,74326.5,5.17,-19.81,-20.53,0,*72
1500509012.72,36591,19.94,74328.3,5.17,-19.91,-20.69,0,*7B
1500509013.94,36592,19.88,74326.0,5.17,-19.95,-20.69,0,*7C
1500509015.2,36593,19.88,74326.5,5.17,-19.91,-20.53,0,*70
1500509016.42,36594,19.88,74326.5,5.15,-19.81,-20.43,0,*75
1500509017.66,36595,19.88,74324.3,5.17,-19.81,-20.59,0,*7D
1500509018.89,36596,19.88,74326.8,5.17,-19.75,-20.39,0,*73
1500509020.14,36597,19.94,74328.5,5.17,-19.47,-20.35,0,*7F
1500509021.39,36598,19.94,74326.3,5.17,-19.47,-20.19,0,*7E
1500509022.62,36599,19.88,74326.3,5.17,-19.47,-20.25,0,*70
1500509023.87,36600,19.94,74330.3,5.17,-19.47,-20.19,0,*7C
1500509025.08,36601,19.94,74328.3,5.19,-19.47,-20.25,0,*7C
1500509026.31,36602,19.94,74328.3,5.17,-19.51,-20.25,0,*76
1500509027.52,36603,19.88,74324.0,5.19,-19.47,-20.25,0,*7E
1500509028.75,36604,19.94,74326.5,5.19,-19.31,-20.05,0,*7A
1500509029.98,36605,19.94,74326.5,5.19,-19.31,-20.05,0,*7B
1500509031.18,36606,19.94,74326.8,5.19,-19.17,-19.91,0,*7B
1500509032.42,36607,19.88,74320.3,5.19,-19.31,-20.05,0,*79
1500509033.65,36608,19.94,74324.8,5.19,-19.31,-20.05,0,*76
1500509034.85,36609,19.88,74328.0,5.19,-19.47,-20.25,0,*74
1500509036.07,36610,19.94,74328.5,5.21,-19.47,-20.29,0,*7B
1500509037.32,36611,19.94,74328.0,5.21,-19.31,-20.05,0,*75
1500509038.57,36612,19.94,74326.5,5.21,-19.41,-20.05,0,*71
1500509039.82,36613,19.88,74326.8,5.21,-19.47,-20.19,0,*7B
1500509041.09,36614,19.88,74326.0,5.21,-19.31,-20.15,0,*71
1500509042.32,36615,19.88,74326.5,5.19,-19.47,-20.19,0,*76
1500509043.59,36616,19.94,74324.8,5.21,-19.57,-20.15,0,*73
1500509044.85,36617,19.94,74326.0,5.21,-19.41,-20.15,0,*75
1500509046.13,36618,19.88,74322.5,5.21,-19.57,-20.19,0,*71
1500509047.4,36619,19.88,74326.0,5.21,-19.41,-20.15,0,*7B
1500509048.64,36620,19.94,74324.5,5.21,-19.41,-20.05,0,*70
1500509049.89,36621,19.94,74326.5,5.21,-19.41,-20.05,0,*71
1500509051.16,36622,19.88,74322.5,5.21,-19.57,-20.19,0,*78
1500509052.44,36623,19.88,74326.8,5.21,-19.57,-20.19,0,*79
1500509053.68,36624,19.88,74324.8,5.23,-19.41,-20.15,0,*77
1500509054.93,36625,19.88,74326.0,5.23,-19.41,-20.19,0,*7A
1500509056.15,36626,19.94,74328.5,5.23,-19.47,-20.15,0,*73
1500509057.38,36627,19.88,74326.0,5.23,-19.27,-20.05,0,*75
1500509058.63,36628,19.88,74326.8,5.23,-19.41,-20.19,0,*77
1500509059.86,36629,19.88,74328.5,5.25,-19.41,-20.09,0,*71
1500509061.1,36630,19.88,74326.8,5.25,-19.27,-20.09,0,*79
1500509062.32,36631,19.88,74324.5,5.29,-19.23,-19.91,0,*7B
1500509063.55,36632,19.88,74328.0,5.25,-19.23,-19.99,0,*7C
1500509064.81,36633,19.88,74324.5,5.31,-19.13,-19.81,0,*72
1500509066.04,36634,19.88,74324.3,5.29,-19.31,-20.09,0,*76
1500509067.26,36635,19.94,74326.5,5.29,-19.51,-20.19,0,*70
1500509068.52,36636,19.88,74326.0,5.29,-19.61,-20.19,0,*70
1500509069.75,36637,19.88,74324.0,5.23,-19.57,-20.29,0,*7D
1500509070.95,36638,19.88,74326.8,5.23,-19.71,-20.39,0,*77
1500509072.18,36639,19.88,74326.3,5.25,-19.65,-20.29,0,*74
1500509073.42,36640,19.88,74324.5,5.25,-19.27,-19.99,0,*7D
1500509074.65,36641,19.94,74330.0,5.25,-19.41,-20.09,0,*7F
1500509075.88,36642,19.88,74322.8,5.25,-19.41,-20.25,0,*72
1500509077.11,36643,19.94,74328.3,5.25,-19.27,-19.99,0,*7E
1500509078.32,36644,19.94,74328.3,5.25,-19.51,-20.25,0,*75
1500509079.55,36645,19.88,74324.5,5.25,-19.57,-20.29,0,*7E
1500509080.78,36646,19.94,74324.5,5.25,-19.41,-20.09,0,*78
1500509082.02,36647,19.88,74324.5,5.25,-19.27,-20.09,0,*79
1500509083.27,36648,19.94,74326.0,5.25,-19.27,-20.15,0,*7B
1500509084.51,36649,19.88,74322.0,5.29,-19.31,-19.95,0,*73
1500509085.76,36650,19.88,74320.0,5.31,-18.83,-19.61,0,*71
1500509086.99,36651,19.88,74326.8,5.29,-19.31,-19.95,0,*7A
1500509088.22,36652,19.88,74324.0,5.29,-19.31,-20.05,0,*7A
1500509089.45,36653,19.88,74326.5,5.31,-19.17,-19.91,0,*71
1500509090.65,36654,19.88,74324.8,5.29,-19.13,-19.91,0,*7B
1500509091.91,36655,19.94,74328.8,5.31,-19.31,-20.09,0,*78
1500509093.11,36656,19.88,74326.8,5.29,-19.47,-20.09,0,*73
1500509094.36,36657,19.88,74326.8,5.31,-19.61,-20.29,0,*7D
1500509095.62,36658,19.88,74324.5,5.31,-19.37,-20.19,0,*72
1500509096.87,36659,19.88,74324.0,5.31,-19.23,-20.09,0,*77
1500509098.08,36660,19.88,74326.0,5.29,-19.13,-19.95,0,*78
1500509099.34,36661,19.94,74324.5,5.31,-19.23,-19.95,0,*73
1500509100.59,36662,19.88,74322.0,5.31,-19.23,-19.95,0,*70
1500509101.83,36663,19.88,74322.5,5.31,-19.51,-20.25,0,*75
1500509103.05,36664,19.88,74322.0,5.33,-19.41,-20.05,0,*73
1500509104.28,36665,19.88,74324.3,5.31,-19.17,-19.91,0,*74
1500509105.53,36666,19.88,74324.3,5.31,-19.23,-20.05,0,*77
1500509106.79,36667,19.88,74326.5,5.31,-19.23,-20.05,0,*76
1500509108.02,36668,19.88,74326.8,5.31,-19.37,-20.09,0,*70
1500509109.24,36669,19.88,74322.8,5.31,-19.47,-20.09,0,*76
1500509110.5,36670,19.88,74326.3,5.35,-19.41,-20.05,0,*70
1500509111.74,36671,19.88,74322.5,5.33,-19.41,-20.15,0,*76
1500509112.98,36672,19.88,74322.5,5.33,-19.41,-20.15,0,*75
1500509114.21,36673,19.88,74320.8,5.35,-19.17,-19.91,0,*77
1500509115.45,36674,19.88,74322.3,5.35,-19.13,-19.91,0,*74
1500509116.71,36675,19.88,74322.5,5.35,-19.27,-19.91,0,*72
1500509117.97,36676,19.88,74324.3,5.35,-19.27,-19.99,0,*79
1500509119.24,36677,19.88,74322.3,5.35,-19.27,-19.99,0,*78
1500509120.46,36678,19.88,74322.3,5.33,-19.17,-19.85,0,*7F
1500509121.68,36679,19.88,74324.3,5.41,-19.07,-19.85,0,*7A
1500509122.95,36680,19.88,74326.3,5.35,-19.27,-20.05,0,*7F
1500509124.18,36681,19.88,74324.5,5.35,-19.17,-19.91,0,*7A
1500509125.44,36682,19.88,74324.3,5.35,-19.13,-19.85,0,*78
1500509126.66,36683,19.88,74326.3,5.37,-19.03,-19.81,0,*7E
1500509127.88,36684,19.88,74324.0,5.37,-19.07,-19.81,0,*7D
1500509129.12,36685,19.88,74326.0,5.37,-19.23,-19.95,0,*7F
1500509130.34,36686,19.88,74326.0,5.33,-19.41,-20.05,0,*7F
1500509131.57,36687,19.88,74326.0,5.35,-19.17,-20.05,0,*7B
1500509132.81,36688,19.88,74326.3,5.41,-19.27,-19.91,0,*73
1500509134.03,36689,19.88,74324.5,5.37,-19.41,-20.09,0,*78
1500509135.26,36690,19.88,74326.0,5.37,-19.41,-20.09,0,*70
1500509136.46,36691,19.88,74324.5,5.41,-19.37,-20.09,0,*71
1500509137.68,36692,19.88,74324.8,5.37,-19.51,-20.15,0,*7E
1500509138.92,36693,19.88,74326.8,5.37,-19.27,-19.99,0,*70
1500509140.14,36694,19.88,74324.5,5.41,-18.99,-19.81,0,*7B
1500509141.37,36695,19.88,74322.8,5.37,-19.41,-20.09,0,*75
1500509142.58,36696,19.88,74326.0,5.37,-19.13,-19.95,0,*7E
1500509143.8,36697,19.88,74324.8,5.37,-19.07,-19.85,0,*7B
1500509145.03,36698,19.88,74328.8,5.41,-19.23,-19.95,0,*72
1500509146.24,36699,19.88,74324.8,5.41,-19.37,-20.09,0,*79
1500509147.46,36700,19.88,74324.0,5.41,-19.31,-20.05,0,*72
1500509148.67,36701,19.88,74324.5,5.41,-19.37,-20.09,0,*79
1500509149.9,36702,19.88,74326.0,5.37,-19.51,-20.19,0,*7A
1500509151.12,36703,19.88,74326.8,5.41,-19.23,-19.91,0,*75
1500509152.33,36704,19.88,74328.0,5.41,-19.17,-19.91,0,*75
1500509153.55,36705,19.88,74324.8,5.41,-19.31,-20.09,0,*7B
1500509154.8,36706,19.88,74326.0,5.37,-19.41,-20.15,0,*73
1500509156.0,36707,19.88,74324.0,5.41,-19.47,-20.09,0,*78
1500509157.22,36708,19.88,74324.0,5.41,-19.51,-20.15,0,*7D
1500509158.46,36709,19.88,74326.0,5.41,-19.61,-20.39,0,*71
1500509159.66,36710,19.88,74324.0,5.41,-19.51,-20.29,0,*7B
1500509160.86,36711,19.88,74318.3,5.41,-19.51,-20.29,0,*7A
1500509162.11,36712,19.88,74320.5,5.37,-19.41,-20.19,0,*7A
1500509163.34,36713,19.88,74324.5,5.41,-19.23,-20.05,0,*73
1500509164.54,36714,19.88,74324.0,5.41,-19.37,-20.09,0,*7D
1500509165.76,36715,19.88,74320.5,5.41,-19.51,-20.15,0,*71
1500509166.97,36716,19.88,74326.8,5.41,-19.37,-20.05,0,*73
1500509168.17,36717,19.88,74324.8,5.41,-19.47,-20.25,0,*77
1500509169.37,36718,19.88,74324.8,5.41,-19.47,-20.09,0,*76
1500509170.57,36719,19.88,74326.5,5.41,-19.47,-20.25,0,*79
1500509171.79,36720,19.88,74324.3,5.41,-19.51,-20.15,0,*77
1500509172.99,36721,19.88,74322.8,5.41,-19.47,-20.05,0,*70
1500509174.19,36722,19.88,74326.3,5.41,-19.47,-20.09,0,*7F
1500509175.39,36723,19.88,74324.8,5.41,-19.47,-20.09,0,*7E
1500509176.61,36724,19.88,74328.3,5.41,-19.47,-20.15,0,*74
1500509177.83,36725,19.88,74326.3,5.41,-19.37,-20.15,0,*72
1500509179.05,36726,19.88,74326.0,5.41,-19.47,-20.15,0,*76
1500509180.28,36727,19.88,74326.8,5.41,-19.61,-20.29,0,*7C
1500509181.5,36728,19.88,74326.3,5.41,-19.65,-20.29,0,*77
1500509182.74,36729,19.88,74328.0,5.41,-19.65,-20.39,0,*77
1500509183.94,36730,19.88,74328.0,5.41,-19.51,-20.29,0,*79
1500509185.16,36731,19.88,74324.8,5.41,-19.65,-20.29,0,*7F
1500509186.36,36732,19.88,74326.8,5.41,-19.47,-20.05,0,*72
1500509187.58,36733,19.88,74324.8,5.41,-19.47,-20.15,0,*72
1500509188.78,36734,19.88,74326.0,5.41,-19.37,-20.09,0,*7F
1500509189.98,36735,19.88,74324.8,5.41,-19.47,-20.09,0,*79
1500509191.19,36736,19.88,74326.8,5.41,-19.47,-20.25,0,*74
1500509192.39,36737,19.88,74326.5,5.41,-19.51,-20.25,0,*72
1500509193.59,36738,19.88,74324.8,5.41,-19.51,-20.29,0,*71
1500509194.87,36739,19.88,74326.8,5.43,-19.61,-20.35,0,*7C
1500509196.1,36740,19.88,74328.3,5.41,-19.65,-20.29,0,*79
1500509197.35,36741,19.88,74326.5,5.43,-19.57,-20.25,0,*77
1500509198.59,36742,19.88,74326.0,5.41,-19.65,-20.39,0,*7A
1500509199.82,36743,19.88,74326.8,5.41,-19.61,-20.39,0,*7F
1500509201.05,36744,19.88,74326.5,5.41,-19.65,-20.43,0,*71
1500509202.29,36745,19.88,74326.5,5.41,-19.81,-20.53,0,*7B
1500509203.5,36746,19.88,74326.5,5.41,-19.75,-20.43,0,*72
1500509204.72,36747,19.88,74328.8,5.41,-19.75,-20.53,0,*72
1500509205.96,36748,19.88,74326.8,5.41,-19.61,-20.39,0,*74
1500509207.16,36749,19.88,74328.8,5.41,-19.75,-20.43,0,*7D
1500509208.39,36750,19.88,74324.8,5.41,-19.31,-20.09,0,*7B
1500509209.59,36751,19.88,74326.0,5.41,-19.51,-20.25,0,*72
1500509210.8,36752,19.88,74324.3,5.41,-19.37,-20.09,0,*7F
1500509212.0,36753,19.88,74324.0,5.41,-19.51,-20.29,0,*7C
1500509213.2,36754,19.88,74324.5,5.41,-19.37,-20.05,0,*75
1500509214.41,36755,19.88,74330.0,5.41,-19.37,-20.09,0,*78
1500509215.63,36756,19.88,74328.3,5.41,-19.51,-20.15,0,*76
1500509216.89,36757,19.88,74328.8,5.43,-19.57,-20.25,0,*70
1500509218.17,36758,19.88,74324.8,5.43,-19.57,-20.35,0,*7E
1500509219.37,36759,19.88,74326.3,5.41,-19.75,-20.43,0,*7C
1500509220.57,36760,19.88,74326.8,5.41,-19.51,-20.29,0,*7C
1500509221.8,36761,19.88,74326.5,5.41,-19.61,-20.25,0,*72
1500509223.06,36762,19.88,74324.5,5.43,-19.57,-20.25,0,*76
1500509224.29,36763,19.88,74324.0,5.41,-19.65,-20.39,0,*79
1500509225.52,36764,19.88,74326.0,5.41,-19.61,-20.25,0,*77
1500509226.75,36765,19.88,74326.3,5.41,-19.61,-20.29,0,*7A
1500509228.0,36766,19.88,74324.5,5.43,-19.71,-20.35,0,*77
1500509229.23,36767,19.88,74324.8,5.43,-19.75,-20.39,0,*7E
1500509230.46,36768,19.88,74326.3,5.41,-19.71,-20.35,0,*7B
1500509231.7,36769,19.88,74322.8,5.41,-19.81,-20.53,0,*75
1500509232.94,36770,19.88,74324.8,5.43,-19.71,-20.39,0,*7C
1500509234.16,36771,19.88,74324.5,5.41,-19.47,-20.19,0,*78
1500509235.44,36772,19.88,74326.5,5.43,-19.57,-20.19,0,*78
1500509236.65,36773,19.88,74324.0,5.41,-19.51,-20.29,0,*7E
1500509237.88,36774,19.88,74326.0,5.41,-19.61,-20.43,0,*76
1500509239.1,36775,19.88,74326.8,5.41,-19.65,-20.29,0,*7F
1500509240.31,36776,19.88,74326.8,5.41,-19.51,-20.25,0,*77
1500509241.52,36777,19.88,74322.3,5.41,-19.51,-20.39,0,*7B
1500509242.78,36778,19.88,74324.5,5.43,-19.61,-20.25,0,*78
1500509244.01,36779,19.88,74324.0,5.41,-19.61,-20.39,0,*76
1500509245.24,36780,19.88,74326.8,5.41,-19.57,-20.29,0,*74
1500509246.44,36781,19.88,74322.5,5.41,-19.51,-20.25,0,*7F
1500509247.68,36782,19.88,74324.5,5.43,-19.71,-20.39,0,*71
1500509248.89,36783,19.88,74326.3,5.41,-19.51,-20.25,0,*7D
1500509250.16,36784,19.88,74326.0,5.43,-19.61,-20.35,0,*7A
1500509251.4,36785,19.88,74324.8,5.41,-19.61,-20.39,0,*75
1500509252.63,36786,19.88,74328.0,5.41,-19.31,-20.05,0,*7C
1500509253.88,36787,19.88,74326.8,5.43,-19.31,-20.09,0,*73
1500509255.13,36788,19.88,74320.8,5.43,-19.47,-20.19,0,*7C
1500509256.39,36789,19.88,74326.8,5.43,-19.31,-20.05,0,*71
1500509257.66,36790,19.88,74324.0,5.43,-19.41,-20.19,0,*73
1500509258.89,36791,19.88,74326.5,5.43,-19.47,-20.25,0,*7B
1500509260.09,36792,19.88,74324.5,5.41,-19.47,-20.09,0,*74
1500509261.32,36793,19.88,74328.3,5.45,-19.51,-20.19,0,*77
1500509262.6,36794,19.88,74324.5,5.43,-19.85,-20.49,0,*7A
1500509263.8,36795,19.88,74324.8,5.41,-19.95,-20.69,0,*7A
1500509265.03,36796,19.88,74324.8,5.43,-19.47,-20.25,0,*7C
1500509266.25,36797,19.88,74324.5,5.43,-19.47,-20.09,0,*73
1500509267.5,36798,19.88,74326.3,5.43,-19.41,-20.05,0,*76
1500509268.72,36799,19.88,74322.8,5.41,-19.47,-20.15,0,*72
1500509269.97,36800,19.88,74324.5,5.43,-19.31,-20.05,0,*7F
1500509271.18,36801,19.88,74326.8,5.45,-19.37,-20.05,0,*7E
1500509272.41,36802,19.88,74324.8,5.43,-19.47,-20.25,0,*7E
1500509273.66,36803,19.88,74326.5,5.43,-19.57,-20.09,0,*70
1500509274.92,36804,19.88,74330.3,5.43,-19.61,-20.25,0,*7C
1500509276.18,36805,19.88,74324.0,5.43,-19.71,-20.49,0,*76
1500509277.44,36806,19.88,74326.8,5.43,-19.71,-20.49,0,*75
1500509278.7,36807,19.88,74328.8,5.43,-19.57,-20.25,0,*7A
1500509279.92,36808,19.88,74324.3,5.43,-19.47,-20.05,0,*76
1500509281.16,36809,19.88,74324.8,5.43,-19.13,-19.91,0,*71
1500509282.41,36810,19.88,74324.8,5.43,-19.31,-20.05,0,*7E
1500509283.67,36811,19.88,74328.8,5.43,-19.31,-19.99,0,*70
1500509284.91,36812,19.88,74328.0,5.43,-19.41,-20.09,0,*77
1500509286.14,36813,19.88,74328.0,5.43,-19.47,-20.09,0,*70
1500509287.4,36814,19.88,74322.8,5.43,-19.31,-20.05,0,*7A
1500509288.65,36815,19.88,74320.0,5.43,-19.31,-20.05,0,*7B
1500509289.88,36816,19.88,74324.8,5.49,-19.27,-19.95,0,*76
1500509291.08,36817,19.88,74326.5,5.49,-19.37,-20.05,0,*75
1500509292.31,36818,19.88,74324.5,5.49,-19.23,-19.95,0,*7C
1500509293.55,36819,19.88,74324.0,5.45,-19.27,-19.95,0,*75
1500509294.75,36820,19.88,74322.8,5.45,-19.37,-19.95,0,*7E
1500509295.95,36821,19.88,74322.8,5.49,-19.37,-19.99,0,*7F
1500509297.19,36822,19.88,74322.3,5.49,-19.41,-20.15,0,*73
1500509298.41,36823,19.88,74326.8,5.45,-19.41,-19.99,0,*70
1500509299.64,36824,19.88,74326.3,5.49,-19.23,-19.95,0,*73
1500509300.84,36825,19.88,74324.0,5.49,-19.37,-20.05,0,*74
1500509302.05,36826,19.88,74320.8,5.49,-19.41,-20.05,0,*76